This page uses our WeatherBlox Daily Observations layout. Learn more.

39.04372, -77.48749

Hourly Observations for October 17, 2017

Temp ( °F °C ) Dew Point ( °F °C ) Humidity (%) Winds ( mph kmh ) Pressure ( in mb ) Visibility ( mi km ) Precip ( " mm )
12:15 am 00:15 Clear 50 10 37 3 62 N 7 11 30.30 1026 10 16 0.00 0.00
12:35 am 00:35 Clear 50 10 37 3 62 N 5 7 30.30 1026 10 16 0.00 0.00
12:55 am 00:55 Clear 50 10 37 3 62 Calm 30.30 1026 10 16 0.00 0.00
1:15 am 01:15 Clear 46 8 37 3 71 N 6 9 30.30 1026 10 16 0.00 0.00
1:35 am 01:35 Clear 48 9 37 3 66 NE 3 6 30.33 1027 10 16 0.00 0.00
1:55 am 01:55 Clear 46 8 37 3 71 Calm 30.33 1027 10 16 0.00 0.00
2:15 am 02:15 Clear 43 6 39 4 87 NW 3 6 30.33 1027 10 16 0.00 0.00
2:35 am 02:35 Clear 45 7 41 5 87 Calm 30.33 1027 10 16 0.00 0.00
2:55 am 02:55 Clear 45 7 39 4 81 N 5 7 30.33 1027 10 16 0.00 0.00
3:15 am 03:15 Clear 45 7 37 3 76 N 5 7 30.33 1027 10 16 0.00 0.00
3:35 am 03:35 Clear 45 7 37 3 76 NNW 5 7 30.33 1027 10 16 0.00 0.00
3:55 am 03:55 Clear 43 6 37 3 81 NNW 6 9 30.33 1027 10 16 0.00 0.00
4:15 am 04:15 Clear 45 7 37 3 76 Calm 30.33 1027 10 16 0.00 0.00
4:35 am 04:35 Clear 45 7 37 3 76 NNW 7 11 30.33 1027 10 16 0.00 0.00
4:55 am 04:55 Clear 43 6 37 3 81 NNW 3 6 30.36 1028 10 16 0.00 0.00
5:15 am 05:15 Clear 43 6 37 3 81 Calm 30.36 1028 10 16 0.00 0.00
5:35 am 05:35 Clear 43 6 37 3 81 NNW 5 7 30.36 1028 10 16 0.00 0.00
5:55 am 05:55 Clear 43 6 37 3 81 NNW 5 7 30.36 1028 10 16 0.00 0.00
6:15 am 06:15 Clear 43 6 37 3 81 NNW 6 9 30.36 1028 10 16 0.00 0.00
6:35 am 06:35 Clear 43 6 37 3 81 Calm 30.39 1029 10 16 0.00 0.00
6:55 am 06:55 Clear 41 5 37 3 87 Calm 30.39 1029 10 16 0.00 0.00
7:15 am 07:15 Clear 41 5 37 3 87 Calm 30.39 1029 10 16 0.00 0.00
7:35 am 07:35 Sunny 41 5 37 3 87 Calm 30.39 1029 10 16 0.00 0.00
7:55 am 07:55 Sunny 37 3 37 3 100 NNW 5 7 30.39 1029 10 16 0.00 0.00
8:15 am 08:15 Sunny 41 5 41 5 100 WNW 3 6 30.42 1030 10 16 0.00 0.00
8:35 am 08:35 Sunny 45 7 41 5 87 NW 3 6 30.42 1030 10 16 0.00 0.00
8:55 am 08:55 Sunny 46 8 39 4 76 NNW 3 6 30.42 1030 10 16 0.00 0.00
9:15 am 09:15 Sunny 48 9 41 5 76 N/A 30.45 1031 10 16 0.00 0.00
9:35 am 09:35 Sunny 50 10 39 4 67 Calm 30.45 1031 10 16 0.00 0.00
9:55 am 09:55 Sunny 52 11 37 3 58 Calm 30.45 1031 10 16 0.00 0.00
10:15 am 10:15 Sunny 52 11 37 3 58 N 3 6 30.45 1031 10 16 0.00 0.00
10:35 am 10:35 Sunny 54 12 36 2 51 Calm 30.45 1031 10 16 0.00 0.00
10:55 am 10:55 Sunny 54 12 37 3 54 Calm 30.45 1031 10 16 0.00 0.00
11:15 am 11:15 Sunny 55 13 39 4 55 NNW 3 6 30.42 1030 10 16 0.00 0.00
11:35 am 11:35 Sunny 55 13 37 3 51 NNE 6 9 30.42 1030 10 16 0.00 0.00
11:55 am 11:55 Sunny 55 13 37 3 51 N 6 9 30.42 1030 10 16 0.00 0.00
12:15 pm 12:15 Sunny 57 14 37 3 48 Calm 30.39 1029 10 16 0.00 0.00
12:35 pm 12:35 Sunny 59 15 36 2 42 Calm 30.39 1029 10 16 0.00 0.00
12:55 pm 12:55 Sunny 59 15 37 3 45 NNW 3 6 30.36 1028 10 16 0.00 0.00
1:15 pm 13:15 Sunny 59 15 37 3 45 W 3 6 30.36 1028 10 16 0.00 0.00
1:35 pm 13:35 Sunny 61 16 36 2 39 N 6 9 30.36 1028 10 16 0.00 0.00
1:55 pm 13:55 Sunny 61 16 37 3 42 WNW 6 9 30.33 1027 10 16 0.00 0.00
2:15 pm 14:15 Sunny 61 16 36 2 39 NW 3 6 30.33 1027 10 16 0.00 0.00
2:35 pm 14:35 Sunny 61 16 36 2 39 WNW 7 11 30.33 1027 10 16 0.00 0.00
2:55 pm 14:55 Sunny 61 16 34 1 36 N 5 7 30.30 1026 10 16 0.00 0.00
3:15 pm 15:15 Sunny 63 17 36 2 37 Calm 30.30 1026 10 16 0.00 0.00
3:35 pm 15:35 Sunny 63 17 36 2 37 N 3 6 30.30 1026 10 16 0.00 0.00
3:55 pm 15:55 Sunny 61 16 36 2 39 WSW 3 6 30.30 1026 7 11 0.00 0.00
4:15 pm 16:15 Sunny 63 17 36 2 37 Calm 30.30 1026 10 16 0.00 0.00
4:35 pm 16:35 Sunny 63 17 36 2 37 Calm 30.30 1026 10 16 0.00 0.00
4:55 pm 16:55 Sunny 63 17 34 1 34 Calm 30.30 1026 10 16 0.00 0.00
5:15 pm 17:15 Sunny 63 17 36 2 37 WSW 3 6 30.30 1026 10 16 0.00 0.00
5:35 pm 17:35 Sunny 63 17 36 2 37 Calm 30.30 1026 10 16 0.00 0.00
5:55 pm 17:55 Sunny 63 17 36 2 37 Calm 30.30 1026 10 16 0.00 0.00
6:15 pm 18:15 Sunny 61 16 36 2 39 S 3 6 30.30 1026 10 16 0.00 0.00
6:35 pm 18:35 Clear 59 15 37 3 45 Calm 30.30 1026 10 16 0.00 0.00
6:55 pm 18:55 Clear 57 14 39 4 51 S 5 7 30.30 1026 10 16 0.00 0.00
7:15 pm 19:15 Clear 55 13 39 4 55 S 5 7 30.30 1026 10 16 0.00 0.00
7:35 pm 19:35 Clear 52 11 41 5 67 SSW 5 7 30.33 1027 10 16 0.00 0.00
7:55 pm 19:55 Clear 52 11 43 6 72 SW 3 6 30.33 1027 10 16 0.00 0.00
8:15 pm 20:15 Clear 50 10 43 6 76 Calm 30.33 1027 10 16 0.00 0.00
8:35 pm 20:35 Clear 50 10 43 6 76 Calm 30.33 1027 10 16 0.00 0.00
8:55 pm 20:55 Clear 46 8 43 6 87 SSW 6 9 30.36 1028 10 16 0.00 0.00
9:15 pm 21:15 Clear 46 8 43 6 87 SSW 3 6 30.36 1028 10 16 0.00 0.00
9:35 pm 21:35 Clear 46 8 43 6 87 Calm 30.36 1028 10 16 0.00 0.00
9:55 pm 21:55 Clear 45 7 43 6 93 SW 3 6 30.36 1028 10 16 0.00 0.00
10:15 pm 22:15 Clear 45 7 43 6 93 SW 6 9 30.36 1028 10 16 0.00 0.00
10:35 pm 22:35 Clear 45 7 43 6 93 WSW 5 7 30.36 1028 10 16 0.00 0.00
10:55 pm 22:55 Clear 45 7 43 6 93 WSW 3 6 30.39 1029 10 16 0.00 0.00
11:15 pm 23:15 Clear 43 6 41 5 93 WSW 5 7 30.39 1029 10 16 0.00 0.00
11:35 pm 23:35 Clear 45 7 41 5 87 WSW 5 7 30.36 1028 10 16 0.00 0.00
11:55 pm 23:55 Clear 43 6 43 6 100 Calm 30.39 1029 10 16 0.00 0.00